Location: ?ekanov
(49.8823°N, 14.9498°E)
Time: 21:02:41
(UTC+00:00)

Daily predictions for brighter satellites

Satellite Brightness Start Highest point End
(mag) Time Altitude Azimuth Time Altitude Azimuth Time Altitude Azimuth
PSLV R/B 4.0 17:19:46 10° NNE 17:24:00 89° SE 17:28:12 10° SSW
In-Cosmos 22 4.2 17:22:44 10° N 17:27:58 56° ENE 17:33:16 10° SSE
NOSS 3-2 (A) 4.1 17:21:30 10° NW 17:28:55 89° SW 17:37:21 10° SE
Cosmos 1048 Rocket 4.1 17:24:50 10° NNW 17:30:09 64° ENE 17:35:28 10° SE
ARGOS 3.6 17:25:13 10° SE 17:30:13 41° ENE 17:35:15 10° N
NOSS 2-2 (C) 3.1 17:27:03 10° SW 17:30:33 86° SE 17:34:36 10° NE
CZ-2C R/B 4.0 17:27:28 10° NE 17:31:21 19° E 17:35:14 10° SE
Cosmos 2082 Rocket 3.9 17:31:35 10° N 17:35:13 17° NNE 17:38:51 10° ENE
Cosmos 1891 Rocket 4.5 17:30:59 10° S 17:36:57 60° E 17:42:53 10° NNE
Cosmos 1975 Rocket 3.9 17:35:14 10° NNW 17:39:28 54° W 17:43:41 10° S
Cosmos 2151 Rocket 4.0 17:35:37 10° SSE 17:39:48 40° E 17:44:02 10° NNE
Lacrosse 5 rocket 2.8 17:36:31 10° WNW 17:40:24 32° N 17:44:28 10° ENE
Cosmos 494 Rocket 4.2 17:37:57 10° NNW 17:43:09 55° ENE 17:48:20 10° SE
HJ-1C 3.3 17:41:40 10° SSE 17:44:54 60° ENE 17:48:12 10° N
COSMO-SKYMED 1 3.6 17:44:44 10° N 17:48:58 52° WNW 17:53:10 10° SW
Nadezhda 4 Rocket 4.0 17:46:11 10° N 17:52:17 63° ENE 17:58:21 10° SSE
Cosmos 1805 4.2 17:49:52 10° SE 17:53:07 25° E 17:56:23 10° NNE
Ariane Rocket 3.5 17:48:42 10° SE 17:53:23 39° ENE 17:58:06 10° N
H-2A R/B 2.0 17:49:15 10° SSE 17:54:15 78° ENE 17:59:26 10° NNW
SL-08 RB Rocket 4.1 17:51:02 10° SE 17:55:22 44° ENE 17:59:40 10° N
OBJECT-B 2.7 17:55:36 14° ENE 17:56:07 15° ENE 17:58:01 10° NNE
SJ 16-02 4.2 17:53:53 10° W 17:56:46 17° NW 17:59:42 10° N
Exosat Rocket 4.0 17:53:56 10° S 17:58:50 38° ESE 18:03:27 10° NE
USA 116 3.6 17:55:37 10° NNE 17:59:16 83° ESE 18:03:21 10° SSW
Cosmos 2263 Rocket 3.7 17:54:53 10° WSW 18:00:05 38° NW 18:05:19 10° NNE
COSMOS 2406 3.8 17:56:32 10° NNW 18:01:52 39° NE 18:05:51 17° ESE
KORONAS-FOTON 4.0 17:58:08 10° N 18:02:00 51° ENE 18:05:49 10° SSE
Cosmos 1844 Rocket 2.6 17:58:45 10° SSW 18:04:15 68° ESE 18:09:50 10° NNE
Cosmos 1707 3.8 18:00:54 10° NNW 18:04:36 46° W 18:08:16 10° SSW
Cosmos 372 Rocket 4.4 18:00:55 10° SSW 18:06:07 69° WNW 18:11:21 10° NNE
Cosmos 1626 3.2 18:03:00 10° NNE 18:06:10 26° ENE 18:07:28 21° ESE
NOSS 3-2 (C) 4.1 17:59:43 10° NW 18:07:09 83° SW 18:15:36 10° SE
Cosmos 2278 Rocket 3.7 18:09:59 16° E 18:09:59 16° E 18:12:21 10° ENE
IRS-1A Rocket 4.5 18:05:50 10° SE 18:11:35 58° ENE 18:17:16 10° N
Cosmos 1844 3.7 18:06:07 10° SSW 18:11:43 63° ESE 18:17:17 10° NE
Cosmos 2034 Rocket 4.0 18:05:27 10° S 18:11:47 73° E 18:18:06 10° NNE
Meteor 2-5 Rocket 3.9 18:07:00 10° N 18:12:34 53° ENE 18:18:12 10° SSE
ISS -3.6 18:09:25 10° W 18:12:48 73° NNW 18:14:49 22° ENE
NOSS 3-4 (A) 3.9 18:07:56 10° S 18:13:15 36° ESE 18:18:54 10° NE
USA 186 1.9 18:11:03 18° SE 18:13:16 51° ENE 18:16:30 10° N
NOSS 3-4 (C) 3.9 18:08:03 10° S 18:13:22 36° ESE 18:19:00 10° NE
NOSS 5 (C) 4.3 18:10:30 10° NW 18:13:35 80° NE 18:15:45 22° SE
Lacrosse 4 Rocket 2.9 18:11:56 10° NNW 18:15:06 21° NE 18:16:33 18° ENE
Meteor 1-24 Rocket 4.1 18:09:49 10° N 18:15:08 44° ENE 18:19:24 16° SE
Meteor 2-13 Rocket 4.4 18:10:43 10° N 18:16:52 65° ENE 18:22:57 10° SSE
Cosmos 1300 Rocket 4.1 18:16:08 10° SSW 18:20:31 62° WNW 18:24:57 10° N
Okean 1 Rocket 3.2 18:19:18 10° S 18:23:40 53° E 18:28:03 10° NNE
SL-14 R/B 3.8 18:21:35 10° N 18:25:18 38° ENE 18:26:27 30° ESE
CENTAUR R/B 3.4 18:18:13 10° NW 18:26:12 73° SW 18:34:46 11° SSE
Resurs 01 Rocket 2.8 18:25:51 24° E 18:26:44 25° ENE 18:30:23 10° N
Cosmos 1833 Rocket 3.1 18:21:59 10° NNW 18:27:24 44° NE 18:30:12 26° ESE
Cosmos 2298 Rocket 4.4 18:22:07 10° SSW 18:27:25 67° WNW 18:32:45 10° NNE
Cosmos 1766 3.2 18:30:48 10° S 18:34:39 58° E 18:38:34 10° NNE
Okean 2 Rocket 4.3 18:30:51 10° SSW 18:35:08 44° WNW 18:39:26 10° N
ATLAS 2AS CENTAUR R/B 3.1 18:28:12 10° SSW 18:35:48 52° ESE 18:43:23 10° NE
ATLAS 3B R/B 2.8 18:31:52 10° NW 18:38:40 64° NE 18:42:34 28° ESE
Cosmos 1634 Rocket 4.0 18:33:32 10° SSE 18:39:31 55° E 18:45:34 10° NNE
Abrixas rocket 3.4 18:39:40 10° W 18:42:06 25° SSW 18:42:11 25° SSW
SPOT 3 Rocket 3.8 18:40:10 31° ESE 18:42:14 48° ENE 18:47:12 10° N
ARIANE 5 R/B 4.0 18:42:31 22° ENE 18:42:31 22° ENE 18:45:39 10° NNE
CREW DRAGON DEMO-1 DEB 4.2 18:41:11 10° W 18:43:51 28° SSW 18:44:16 27° SSW
Cosmos 1125 Rocket 3.8 18:42:44 10° SSW 18:48:02 71° WNW 18:53:23 10° NNE
Resurs 1-3 3.7 18:48:54 43° ESE 18:50:02 57° ENE 18:54:22 10° N
SJ-6B 2.7 18:48:31 30° S 18:50:18 78° WSW 18:54:07 10° NNW
Cosmos 1892 Rocket 3.6 18:46:25 10° N 18:50:42 53° ENE 18:51:25 47° ESE
Cosmos 2195 Rocket 4.5 18:47:51 10° N 18:54:09 85° W 19:00:07 11° S
Cosmos 1674 4.2 18:52:34 10° NNW 18:56:09 37° W 18:59:41 10° SSW
Cosmos 2026 Rocket 4.0 18:50:36 10° N 18:57:01 88° E 19:02:16 16° S
Cosmos 1092 Rocket 4.2 18:51:00 10° NNW 18:57:11 73° W 19:03:21 10° S
Cosmos 2285 Rocket 4.1 18:52:27 10° SSW 18:58:46 79° WNW 19:05:11 10° NNE
MOS 1 Rocket 4.5 18:57:49 10° N 19:01:56 40° WNW 19:05:56 10° SW
FREGAT/IRIS 3.9 19:04:41 34° WNW 19:04:41 34° WNW 19:06:39 10° NNW
Cosmos 1428 Rocket 4.5 18:59:16 10° N 19:05:35 86° W 19:10:06 20° S
TSX-5 4.0 19:05:58 10° SSW 19:09:56 86° WNW 19:15:08 10° NNE
CZ-2C R/B 2.8 19:06:40 10° NNE 19:12:14 78° WNW 19:17:52 10° SSW
Cosmos 1340 Rocket 2.7 19:15:11 87° W 19:15:12 87° W 19:19:15 10° NNE
Cosmos 2279 Rocket 3.9 19:12:59 31° SSE 19:16:02 65° E 19:22:16 10° NNE
Cosmos 1733 3.9 19:13:48 14° SSW 19:16:56 53° WNW 19:20:42 10° N
MetOp-B 4.2 19:17:29 52° E 19:17:57 54° ENE 19:23:10 10° N
Lacrosse 5 rocket 2.1 19:16:06 10° NW 19:20:22 45° NNE 19:20:43 44° NE
Cosmos 2098 Rocket 3.9 19:13:38 10° N 19:20:23 59° ENE 19:21:19 53° ESE
Cosmos 2082 Rocket 2.2 19:14:55 10° NNW 19:20:30 62° ENE 19:21:17 56° E
DMSP B5D2-2 4.2 19:16:47 10° N 19:22:06 74° WNW 19:27:21 10° SSW
Spot 2 Rocket 4.0 19:25:14 42° NE 19:25:14 42° NE 19:29:35 10° N
BREEZE-M R/B 3.7 19:18:01 10° WSW 19:24:25 61° SW 19:24:25 61° SW
OBJECT-B 2.3 19:28:48 36° WNW 19:28:48 36° WNW 19:31:17 10° NNW
Cosmos 2142 Rocket 4.4 19:24:37 16° S 19:29:47 89° W 19:36:02 10° N
Ariane Rocket 4.5 19:28:06 11° SSW 19:32:23 34° W 19:37:01 10° NNW
Terra 3.6 19:42:51 20° NNE 19:42:51 20° NNE 19:45:04 10° N
Cosmos 1626 4.0 19:38:15 10° NNW 19:41:23 26° W 19:42:02 25° WSW
Okean 1-7 Rocket 3.9 19:37:21 10° NNW 19:41:51 66° W 19:41:51 66° W
Cosmos 1626 Rocket 4.5 19:37:29 10° N 19:40:32 41° NNE 19:40:32 41° NNE
Cosmos 1455 Rocket 3.9 19:47:18 45° N 19:47:18 45° N 19:50:23 10° N
COSMOS 2406 4.1 19:40:55 10° NW 19:46:15 44° WSW 19:47:55 35° SSW
SPOT 1/Viking Rocket 3.9 19:48:44 53° NNE 19:48:44 53° NNE 19:53:00 10° N
ISS -1.3 19:46:25 10° WNW 19:47:47 22° WNW 19:47:47 22° WNW
ATLAS CENTAUR R/B 3.9 19:50:31 10° N 19:51:16 11° N 19:51:16 11° N
Cosmos 2278 Rocket 2.1 19:51:32 73° SW 19:52:07 87° WNW 19:57:49 10° NNE
Lacrosse 4 Rocket 2.6 19:50:06 10° NW 19:52:52 40° NW 19:52:52 40° NW
Cosmos 909 Rocket 3.9 19:52:57 10° NW 19:59:29 81° SW 19:59:55 76° S
Cosmos 2266 Rocket 3.8 19:54:31 10° N 20:00:34 87° ENE 20:00:34 87° ENE
Resurs 01 Rocket 2.7 20:03:26 42° W 20:03:26 42° W 20:07:17 10° NNW
NOSS 3-4 (A) 3.9 19:57:57 10° WSW 20:03:51 58° NW 20:10:17 10° NE
NOSS 3-4 (C) 3.9 19:58:04 10° WSW 20:03:57 59° NW 20:10:23 10° NE
Cosmos 1833 Rocket 3.7 20:06:07 10° NW 20:11:17 38° WSW 20:11:54 36° WSW
Cosmos 2251 Rocket 4.1 20:08:57 10° NNW 20:13:44 53° W 20:13:44 53° W
ERS-1 Rocket 4.0 20:17:40 40° N 20:17:40 40° N 20:20:55 10° N
ARIANE 5 R/B 4.2 20:20:05 33° NW 20:20:05 33° NW 20:22:44 10° NNW
ATLAS 2AS CENTAUR R/B 3.5 20:19:04 10° WSW 20:26:55 57° NW 20:34:35 10° NE
ATLAS 3B R/B 3.6 20:22:52 10° NW 20:29:06 38° WSW 20:29:50 37° SW
SPOT 5 4.1 20:33:48 43° N 20:33:48 43° N 20:37:20 10° NNW
Lacrosse 5 rocket 4.2 20:55:17 10° WNW 20:56:20 17° WNW 20:56:20 17° WNW
Cosmos 2082 Rocket 4.0 20:59:39 10° NW 21:03:08 24° W 21:03:08 24° W
Terra 4.1 21:21:44 21° NNW 21:21:44 21° NNW 21:23:23 10° NNW
Cosmos 2278 Rocket 4.3 21:33:01 11° W 21:37:02 22° NW 21:41:24 10° NNE
Cosmos 2227 Rocket 4.4 22:08:53 10° N 22:11:40 20° NNE 22:11:40 20° NNE
ATLAS 2AS CENTAUR R/B 4.5 22:12:39 10° WNW 22:19:32 31° NNW 22:26:11 10° NE
Cosmos 1943 Rocket 4.4 22:24:03 20° NNE 22:24:03 20° NNE 22:25:48 10° NNE
CZ-4C R/B 4.1 22:45:17 28° N 22:45:17 28° N 22:49:52 10° NE
Cosmos 2297 Rocket 4.4 22:54:25 10° NNW 22:56:26 21° N 22:56:26 21° N
Cosmos 2369 Rocket 4.3 23:10:31 22° N 23:10:31 22° N 23:12:52 10° NNE
Resurs 1-4 Rocket 4.4 23:44:08 10° NE 23:45:52 18° NE 23:45:52 18° NE
SL-16 R/B 3.8 23:50:37 36° NNE 23:50:37 36° NNE 23:54:30 10° N
CZ-2D R/B 4.4 23:50:22 10° NE 23:52:17 19° NE 23:52:17 19° NE
